CAPE
71 80 79 72 107 77 70 43 3 0 0 0 0 0 0 2 5 4 3 4 0 8 0 0 0 8 7 0 0 0 0 0 0 0 0 0 0 0 0 0 0 2 18 12 17 2 0 0 0 18 35 31 54 43
79 78 80 92 103 75 60 31 0 0 0 0 0 0 0 2 6 1 7 10 0 0 0 0 0 0 0 0 0 0 0 0 0 0 0 0 0 0 0 0 0 0 1 19 2 18 14 9 3 19 41 43 56 32
96 105 108 118 116 77 58 17 0 0 0 0 0 0 1 0 8 4 7 3 5 2 1 0 0 0 0 0 0 0 0 0 0 0 0 0 0 0 0 1 0 0 0 3 0 8 5 10 18 16 33 44 7 0
128 145 158 140 136 80 52 16 0 0 0 0 0 0 1 0 1 6 8 2 21 4 11 12 0 0 0 0 0 0 0 0 0 0 0 0 0 0 0 0 1 1 0 4 3 6 12 13 23 50 16 20 26 10
158 188 176 153 137 84 47 7 0 0 0 0 0 0 1 0 5 3 0 2 0 1 1 7 0 0 0 0 0 0 0 0 0 0 0 0 0 0 0 0 0 0 0 2 13 21 21 10 22 25 19 24 31 13
179 187 146 158 113 81 38 4 0 0 0 0 0 1 0 0 9 0 15 0 0 3 3 8 0 0 0 0 0 0 0 0 0 0 0 0 0 0 0 2 0 0 8 4 0 5 14 24 35 24 34 40 19 11
165 151 176 148 101 66 37 0 0 0 0 0 1 0 0 1 13 5 0 0 0 0 4 17 0 0 0 0 0 0 0 0 0 0 0 0 0 0 4 7 0 5 4 7 7 6 24 34 32 49 28 14 4 0
133 170 172 97 80 56 16 0 0 0 0 1 0 0 0 0 1 0 0 0 0 0 1 38 10 0 0 0 0 0 0 0 0 0 0 0 0 0 9 1 0 4 10 12 11 26 23 22 28 30 10 1 0 0
161 144 103 74 60 40 1 2 2 0 1 0 0 0 13 12 5 1 0 0 0 0 15 22 3 0 0 0 0 0 0 0 0 0 1 0 0 1 1 0 1 7 8 14 3 23 30 34 29 3 0 0 0 0
103 63 57 51 57 28 14 8 11 4 0 0 3 12 12 1 0 1 10 3 0 15 10 6 3 0 0 0 0 0 0 2 0 0 0 0 2 0 0 0 10 13 14 12 26 32 28 18 0 0 0 0 0 0
37 11 9 49 50 60 47 26 12 0 0 11 6 15 2 0 60 28 20 70 43 41 4 0 18 0 6 0 0 0 0 0 0 0 0 0 7 0 0 7 20 12 5 23 23 17 5 0 0 0 0 0 0 0
81 11 25 66 59 64 45 13 0 5 27 12 10 5 5 60 37 11 14 47 27 1 0 3 10 0 0 26 0 0 0 0 0 0 0 1 6 0 3 10 19 3 13 18 11 2 0 0 0 0 0 0 0 0
105 72 72 78 63 58 15 10 1 12 6 19 4 4 17 12 2 5 5 34 17 0 0 10 4 5 3 8 0 0 0 0 0 0 0 4 0 0 6 11 2 3 14 12 0 0 0 0 0 0 0 0 0 0
160 154 127 69 54 44 28 23 26 22 24 14 21 11 13 8 15 10 5 18 9 1 0 6 6 0 0 0 0 0 0 0 0 1 0 1 0 3 10 5 3 10 16 4 0 0 0 0 0 0 0 0 0 0
156 144 119 89 66 61 43 44 38 34 16 38 22 13 6 1 34 20 17 71 0 0 0 0 0 0 0 0 0 0 0 0 0 0 1 0 0 10 4 2 6 8 5 0 0 0 0 0 0 0 0 0 0 0
158 111 43 33 64 64 47 49 34 23 10 56 46 20 19 44 82 62 91 3 0 0 0 0 0 0 0 0 0 0 0 0 0 0 0 0 5 7 5 9 4 0 0 0 0 0 0 0 0 0 0 0 0 0
48 4 24 64 60 62 59 57 30 31 66 29 14 13 18 5 132 4 16 0 0 0 0 0 0 0 0 0 0 0 0 0 0 0 0 0 4 6 3 1 0 0 0 0 0 0 0 0 0 0 0 0 0 0
1 15 75 87 47 49 47 49 53 81 42 6 7 4 3 47 4 0 0 0 0 0 0 0 0 0 0 0 0 0 0 0 0 0 1 7 8 1 0 0 0 0 0 0 0 0 0 0 0 0 0 0 0 0
8 31 50 52 74 63 8 32 17 59 11 0 10 2 0 0 0 0 8 0 0 0 0 0 0 0 0 0 0 0 0 0 0 7 12 9 0 0 0 0 0 0 0 0 0 0 0 0 0 0 0 0 0 0
100 50 85 66 69 64 43 70 49 29 12 10 0 6 0 0 0 0 22 2 0 0 0 0 0 0 0 0 0 0 0 0 0 7 13 8 0 0 0 0 0 0 0 0 0 0 0 0 0 0 0 0 0 0
24 88 54 82 20 27 28 63 34 20 2 30 5 0 0 0 0 0 3 0 0 0 0 0 0 0 0 0 0 0 0 0 0 0 0 0 0 0 0 0 0 0 0 0 0 0 0 0 0 0 0 0 0 0
46 49 67 15 25 60 36 47 55 35 28 11 0 0 0 0 0 0 0 0 0 0 0 0 0 0 0 0 0 0 0 0 0 0 0 0 0 0 0 0 0 0 0 0 0 0 0 0 0 0 0 0 0 0
50 48 15 17 49 30 14 89 59 42 50 10 11 11 5 1 0 0 0 0 0 0 0 0 0 0 0 0 0 0 0 0 0 0 0 0 0 0 0 0 0 0 0 0 0 0 0 0 0 0 0 0 0 0
0 9 3 12 2 9 7 8 28 20 34 23 18 0 1 0 0 0 0 0 0 0 0 0 0 0 0 0 0 0 0 0 0 0 0 0 0 0 0 0 0 0 0 0 0 0 0 0 0 0 0 0 0 0
31 1 4 44 1 3 2 3 7 23 0 0 0 0 0 0 0 0 0 0 0 0 0 0 0 0 0 0 2 3 0 0 0 0 0 0 0 0 0 0 0 0 0 0 0 0 0 0 0 0 1 0 0 0
30 1 4 84 6 4 18 5 1 0 0 0 0 0 0 0 0 0 0 0 0 0 0 0 0 0 0 0 0 1 0 0 0 0 0 0 0 0 0 0 0 0 0 0 0 0 0 0 0 0 0 0 0 0
27 9 11 12 40 11 66 33 0 0 0 0 0 0 0 0 0 0 0 0 0 0 0 0 0 0 0 0 0 0 0 0 0 0 0 0 0 0 0 0 0 0 0 0 0 0 0 0 0 0 0 0 0 0
28 43 0 0 0 14 0 1 0 0 0 0 0 0 0 0 0 0 0 0 0 0 0 0 0 0 0 0 0 0 0 0 0 0 0 0 0 0 0 0 0 0 0 0 0 0 0 0 0 0 0 0 0 0
3 1 1 1 2 0 0 0 0 0 0 0 0 0 0 0 0 0 0 0 0 0 0 0 0 0 0 0 0 0 0 0 0 0 0 0 0 0 0 0 0 0 0 0 0 0 0 0 0 0 0 0 0 0
0 0 1 2 1 0 1 4 2 1 0 0 0 0 0 2 2 0 0 0 0 0 0 0 0 0 0 0 0 0 0 0 0 0 0 0 0 0 0 0 0 0 0 0 0 0 0 0 0 0 0 0 0 0
0 1 1 1 0 6 8 6 2 0 1 1 0 1 0 2 1 0 0 1 0 1 0 0 0 0 0 0 0 0 0 0 0 0 0 0 0 0 0 0 0 0 0 0 0 0 0 0 0 0 0 0 0 0
3 7 0 1 4 3 6 0 2 0 1 0 0 1 0 0 0 0 1 0 0 0 0 0 0 0 0 0 0 0 0 0 0 0 0 0 0 0 0 0 0 0 0 0 0 0 0 0 0 0 0 0 0 0
7 14 0 0 4 5 4 2 0 2 2 1 1 1 0 0 0 0 1 0 0 0 0 0 0 0 0 0 0 0 0 0 0 0 0 0 0 0 0 0 0 0 0 0 0 0 0 0 0 0 0 0 0 0
CIN
-0 -0 -0 -0 -0 -2 -1 -0 -1 -0 -0 -0 -0 -0 -0 -0 -0 -0 -0 -6 -0 -0 -0 -0 -0 -41 -3 -0 -0 -0 -0 -0 -0 -0 -0 -0 -0 -0 -0 -0 -0 -0 -0 -0 -1 -0 -0 -0 -0 -0 -0 -3 -7 -6
-0 -0 -0 -0 -2 -2 -1 -1 -0 -0 -0 -0 -0 -0 -0 -0 -0 -0 -0 -0 -0 -0 -0 -0 -0 -0 -0 -0 -0 -0 -0 -0 -0 -0 -0 -0 -0 -0 -0 -0 -0 -0 -0 -0 -3 -1 -0 -4 -3 -4 -9 -10 -7 -0
-0 -0 -0 -0 -2 -2 -2 -3 -0 -0 -0 -0 -0 -0 -0 -0 -0 -0 -0 -0 -2 -0 -0 -0 -0 -0 -0 -0 -0 -0 -0 -0 -0 -0 -0 -0 -0 -0 -0 -0 -0 -0 -0 -0 -1 -1 -0 -1 -7 -7 -1 -2 -1 -0
-0 -0 -0 -0 -1 -2 -2 -2 -0 -0 -0 -0 -0 -0 -0 -0 -0 -0 -0 -0 -0 -0 -20 -2 -0 -0 -0 -0 -0 -0 -0 -0 -0 -0 -0 -0 -0 -0 -0 -0 -0 -0 -0 -0 -0 -1 -3 -5 -0 -4 -1 -1 -0 -0
-0 -0 -0 -1 -1 -1 -3 -4 -0 -0 -0 -0 -0 -0 -1 -0 -0 -0 -0 -0 -0 -1 -6 -0 -0 -0 -0 -0 -0 -0 -0 -0 -0 -0 -0 -0 -0 -0 -0 -0 -0 -0 -0 -0 -2 -1 -3 -1 -0 -2 -0 -1 -0 -0
-0 -0 -1 -3 -1 -2 -3 -3 -0 -0 -0 -0 -0 -0 -0 -0 -0 -0 -0 -0 -0 -2 -0 -0 -0 -0 -0 -0 -0 -0 -0 -0 -0 -0 -0 -0 -0 -0 -0 -0 -0 -0 -0 -1 -0 -15 -3 -0 -0 -0 -1 -3 -4 -2
-0 -1 -2 -0 -1 -4 -3 -0 -0 -0 -0 -0 -0 -0 -0 -0 -0 -0 -0 -0 -0 -0 -0 -0 -0 -0 -0 -0 -0 -0 -0 -0 -0 -0 -0 -0 -0 -0 -0 -1 -0 -0 -1 -1 -10 -1 -0 -0 -0 -0 -1 -1 -4 -0
-2 -1 -0 -2 -5 -3 -4 -0 -0 -0 -0 -0 -0 -0 -0 -0 -1 -0 -0 -0 -0 -0 -0 -2 -0 -0 -0 -0 -0 -0 -0 -0 -0 -0 -0 -0 -0 -0 -0 -0 -0 -0 -0 -0 -0 -0 -13 -0 -1 -0 -1 -1 -0 -0
-2 -1 -1 -4 -2 -2 -0 -2 -0 -0 -0 -0 -0 -0 -0 -0 -0 -0 -0 -0 -0 -0 -1 -0 -0 -0 -0 -0 -0 -0 -0 -0 -0 -0 -0 -0 -0 -0 -0 -0 -0 -0 -0 -3 -7 -0 -0 -0 -1 -3 -0 -0 -0 -0
-1 -5 -3 -3 -3 -2 -3 -1 -0 -0 -0 -0 -0 -0 -0 -0 -0 -0 -3 -0 -0 -0 -1 -6 -0 -0 -0 -0 -0 -0 -0 -0 -0 -0 -0 -0 -2 -0 -0 -0 -0 -0 -4 -9 -1 -1 -1 -0 -0 -0 -0 -0 -0 -0
-6 -1 -0 -0 -1 -0 -0 -0 -0 -0 -0 -0 -0 -0 -1 -7 -0 -2 -0 -3 -0 -0 -0 -0 -0 -0 -0 -0 -0 -0 -0 -0 -0 -0 -0 -0 -1 -0 -0 -0 -0 -5 -10 -3 -6 -12 -7 -0 -0 -0 -0 -0 -0 -0
-0 -0 -0 -0 -1 -0 -0 -0 -0 -1 -0 -0 -0 -0 -0 -0 -0 -0 -0 -0 -0 -0 -0 -0 -1 -0 -0 -1 -0 -0 -0 -0 -0 -0 -0 -0 -5 -0 -0 -0 -1 -22 -10 -5 -16 -4 -0 -0 -0 -0 -0 -0 -0 -0
-0 -1 -5 -0 -0 -1 -0 -0 -3 -9 -4 -0 -0 -0 -0 -0 -0 -0 -0 -0 -0 -0 -0 -0 -0 -0 -7 -22 -0 -0 -0 -0 -0 -0 -0 -13 -0 -0 -0 -0 -26 -16 -1 -1 -0 -0 -0 -0 -0 -0 -0 -0 -0 -0
-0 -0 -0 -6 -0 -0 -0 -0 -1 -0 -0 -0 -0 -0 -0 -0 -0 -0 -0 -0 -2 -0 -0 -0 -0 -0 -0 -0 -0 -0 -0 -0 -0 -0 -0 -0 -0 -0 -0 -11 -14 -2 -0 -0 -0 -0 -0 -0 -0 -0 -0 -0 -0 -0
-0 -0 -0 -0 -1 -0 -0 -0 -1 -0 -0 -0 -0 -0 -0 -8 -3 -17 -2 -0 -3 -0 -0 -0 -0 -0 -0 -0 -0 -0 -0 -0 -0 -0 -86 -0 -0 -0 -6 -14 -2 -0 -0 -0 -0 -0 -0 -0 -0 -0 -0 -0 -0 -0
-0 -0 -0 -3 -0 -0 -1 -0 -0 -0 -0 -0 -0 -0 -43 -21 -9 -1 -3 -31 -0 -0 -0 -0 -0 -0 -0 -0 -0 -0 -0 -0 -0 -0 -0 -0 -0 -0 -2 -0 -0 -0 -0 -0 -0 -0 -0 -0 -0 -0 -0 -0 -0 -0
-1 -0 -3 -3 -0 -0 -2 -0 -0 -0 -0 -0 -0 -0 -0 -0 -0 -37 -37 -0 -0 -0 -0 -0 -0 -0 -0 -0 -0 -0 -0 -0 -0 -0 -0 -0 -0 -0 -0 -0 -0 -0 -0 -0 -0 -0 -0 -0 -0 -0 -0 -0 -0 -0
-0 -2 -8 -0 -0 -0 -0 -0 -0 -0 -0 -0 -0 -0 -0 -0 -16 -0 -0 -0 -0 -0 -0 -0 -0 -0 -0 -0 -0 -0 -0 -0 -0 -0 -0 -0 -0 -0 -0 -0 -0 -0 -0 -0 -0 -0 -0 -0 -0 -0 -0 -0 -0 -0
-0 -2 -3 -2 -0 -0 -6 -1 -4 -0 -0 -0 -1 -0 -0 -0 -0 -0 -101 -130 -0 -0 -0 -0 -0 -0 -0 -0 -0 -0 -0 -0 -0 -0 -0 -0 -0 -0 -0 -0 -0 -0 -0 -0 -0 -0 -0 -0 -0 -0 -0 -0 -0 -0
-11 -18 -9 -2 -1 -0 -1 -0 -0 -0 -0 -2 -0 -0 -0 -0 -0 -0 -94 -50 -0 -0 -0 -0 -0 -0 -0 -0 -0 -0 -0 -0 -0 -0 -0 -0 -0 -0 -0 -0 -0 -0 -0 -0 -0 -0 -0 -0 -0 -0 -0 -0 -0 -0
-11 -0 -4 -0 -0 -0 -6 -0 -1 -0 -6 -0 -0 -0 -0 -0 -0 -0 -103 -0 -0 -0 -0 -0 -0 -0 -0 -0 -0 -0 -0 -0 -0 -0 -0 -0 -0 -0 -0 -0 -0 -0 -0 -0 -0 -0 -0 -0 -0 -0 -0 -0 -0 -0
-0 -5 -0 -0 -0 -0 -0 -0 -0 -0 -0 -0 -0 -0 -0 -0 -0 -0 -0 -0 -0 -0 -0 -0 -0 -0 -0 -0 -0 -0 -0 -0 -0 -0 -0 -0 -0 -0 -0 -0 -0 -0 -0 -0 -0 -0 -0 -0 -0 -0 -0 -0 -0 -0
-4 -0 -0 -0 -0 -4 -0 -0 -0 -0 -0 -0 -3 -0 -1 -8 -0 -0 -0 -0 -0 -0 -0 -0 -0 -0 -0 -0 -0 -0 -0 -0 -0 -0 -0 -0 -0 -0 -0 -0 -0 -0 -0 -0 -0 -0 -0 -0 -0 -0 -0 -0 -0 -0
-0 -1 -6 -15 -0 -0 -0 -0 -0 -0 -0 -16 -13 -0 -2 -4 -0 -0 -0 -0 -0 -0 -0 -0 -0 -0 -0 -0 -0 -0 -0 -0 -0 -0 -0 -0 -0 -0 -0 -0 -0 -0 -0 -0 -0 -0 -0 -0 -0 -0 -0 -0 -0 -0
-0 -1 -24 -1 -0 -0 -0 -0 -0 -0 -0 -0 -0 -0 -0 -0 -0 -0 -0 -0 -0 -0 -0 -0 -0 -0 -0 -0 -0 -0 -0 -0 -0 -0 -0 -0 -0 -0 -0 -0 -0 -0 -0 -0 -0 -0 -0 -0 -0 -0 -0 -0 -0 -0
-7 -0 -18 -0 -2 -0 -0 -5 -0 -0 -0 -0 -0 -0 -0 -0 -0 -0 -0 -0 -0 -0 -0 -0 -0 -0 -0 -0 -0 -0 -0 -0 -0 -0 -0 -0 -0 -0 -0 -0 -0 -0 -0 -0 -0 -0 -0 -0 -0 -0 -0 -0 -0 -0
-4 -18 -29 -2 -6 -0 -3 -18 -13 -0 -0 -0 -0 -0 -0 -0 -0 -0 -0 -0 -0 -0 -0 -0 -0 -0 -0 -0 -0 -0 -0 -0 -0 -0 -0 -0 -0 -0 -0 -0 -0 -0 -0 -0 -0 -0 -0 -0 -0 -0 -0 -0 -0 -0
-22 -21 -1 -0 -3 -1 -0 -7 -0 -0 -0 -0 -0 -0 -0 -0 -0 -0 -0 -0 -0 -0 -0 -0 -0 -0 -0 -0 -0 -0 -0 -0 -0 -0 -0 -0 -0 -0 -0 -0 -0 -0 -0 -0 -0 -0 -0 -0 -0 -0 -0 -0 -0 -0
-42 -18 -6 -0 -0 -0 -0 -0 -0 -0 -0 -0 -0 -0 -0 -0 -0 -0 -0 -0 -0 -0 -0 -0 -0 -0 -0 -0 -0 -0 -0 -0 -0 -0 -0 -0 -0 -0 -0 -0 -0 -0 -0 -0 -0 -0 -0 -0 -0 -0 -0 -0 -0 -0
-0 -0 -0 -0 -0 -0 -0 -0 -0 -0 -0 -0 -0 -0 -0 -0 -0 -0 -0 -0 -0 -0 -0 -0 -0 -0 -0 -0 -0 -0 -0 -0 -0 -0 -0 -0 -0 -0 -0 -0 -0 -0 -0 -0 -0 -0 -0 -0 -0 -0 -0 -0 -0 -0
-0 -0 -0 -0 -0 -0 -0 -0 -0 -0 -0 -0 -0 -0 -0 -0 -0 -0 -0 -0 -0 -0 -0 -0 -0 -0 -0 -0 -0 -0 -0 -0 -0 -0 -0 -0 -0 -0 -0 -0 -0 -0 -0 -0 -0 -0 -0 -0 -0 -0 -0 -0 -0 -0
-0 -0 -0 -0 -0 -0 -0 -0 -0 -0 -0 -0 -0 -0 -0 -0 -0 -0 -0 -0 -0 -0 -0 -0 -0 -0 -0 -0 -0 -0 -0 -0 -0 -0 -0 -0 -0 -0 -0 -0 -0 -0 -0 -0 -0 -0 -0 -0 -0 -0 -0 -0 -0 -0
-0 -0 -0 -0 -0 -0 -0 -0 -0 -0 -0 -0 -0 -0 -0 -0 -0 -0 -0 -0 -0 -0 -0 -0 -0 -0 -0 -0 -0 -0 -0 -0 -0 -0 -0 -0 -0 -0 -0 -0 -0 -0 -0 -0 -0 -0 -0 -0 -0 -0 -0 -0 -0 -0
Wind_Speed
16 15 14 13 13 15 15 14 10 8 6 3 3 9 12 13 10 5 9 10 5 6 9 7 8 7 5 6 8 10 6 4 5 5 2 2 3 2 3 2 2 1 1 2 3 3 1 6 3 3 6 10 10 4
15 15 15 14 14 16 16 14 11 9 6 3 2 7 11 12 8 7 5 5 5 6 6 8 7 5 8 9 3 9 3 12 6 3 2 3 2 3 7 4 2 2 3 1 3 3 6 7 5 11 7 8 7 3
16 16 15 15 15 17 17 15 12 9 6 2 3 6 10 11 10 6 5 8 7 6 9 7 3 2 5 7 5 5 1 4 1 3 1 2 3 1 3 3 5 3 5 3 4 2 5 5 9 1 3 4 9 12
17 17 17 16 17 19 18 15 12 10 7 2 3 6 9 11 9 8 4 7 8 5 5 5 4 2 3 3 4 4 6 5 4 3 1 3 3 2 2 4 3 1 8 7 10 7 6 7 4 6 3 9 11 10
17 18 17 17 19 20 18 15 12 10 7 4 4 6 8 11 10 6 6 7 9 4 5 3 5 2 4 4 4 3 5 5 5 3 3 3 3 1 2 3 3 6 5 5 5 9 7 6 7 7 10 12 12 11
18 18 17 18 21 20 18 14 12 10 6 4 5 5 9 9 9 2 4 7 10 6 5 4 4 5 6 7 7 7 5 5 2 1 3 3 3 2 5 3 7 6 5 10 9 11 8 9 9 13 10 11 11 13
18 18 18 21 22 20 17 15 12 10 7 4 3 5 9 8 3 4 4 4 14 8 5 4 6 5 8 9 4 4 2 2 2 2 1 3 4 3 2 3 13 9 11 12 11 13 11 10 6 12 11 10 12 13
18 19 20 22 21 19 17 15 12 10 6 2 2 7 8 9 9 10 8 16 10 6 6 4 6 6 9 6 5 5 4 3 2 3 2 4 4 4 1 12 14 13 13 15 11 9 12 7 9 11 10 11 12 11
18 20 22 22 21 19 17 14 12 9 5 3 5 8 4 3 3 5 3 9 4 4 5 3 7 6 7 7 5 5 5 4 3 4 4 5 4 3 10 16 15 15 11 14 10 13 11 12 11 9 12 12 12 12
20 19 19 21 20 18 16 14 11 10 7 3 3 2 3 6 6 4 1 4 6 5 6 6 8 6 10 8 7 6 5 5 4 3 5 4 5 5 14 14 12 13 12 13 11 11 11 11 11 12 12 12 12 11
21 20 18 20 20 18 16 14 13 11 6 2 2 3 4 7 5 1 4 5 6 6 6 7 9 10 9 9 8 6 4 4 3 5 5 5 4 10 16 15 12 13 13 8 11 13 12 13 12 12 12 12 10 10
24 24 21 21 19 17 16 16 16 8 1 3 1 4 4 5 3 5 4 6 8 8 9 9 10 9 8 5 3 3 3 2 3 7 3 3 8 18 17 17 15 12 12 14 15 16 15 15 13 12 11 10 10 10
22 23 22 19 18 18 17 15 15 4 4 2 1 4 5 3 5 7 9 9 7 8 11 11 11 8 2 3 3 4 4 4 9 4 4 2 16 17 17 15 16 13 12 17 17 15 16 15 14 13 11 10 10 9
21 21 20 19 18 16 14 14 11 6 2 1 4 6 5 7 7 8 9 10 6 11 12 12 8 6 5 5 4 5 4 5 5 5 6 9 19 19 18 16 17 16 16 17 17 16 15 14 13 11 10 9 9 9
20 20 20 17 17 15 13 12 11 3 1 4 4 7 9 10 9 12 10 8 8 11 12 11 6 4 5 3 3 4 6 5 6 5 6 14 21 20 20 19 17 17 16 15 15 14 15 14 12 12 10 9 9 8
20 17 12 17 16 15 14 11 3 2 2 5 7 7 11 10 9 4 9 9 9 12 12 8 6 6 6 4 6 7 7 5 4 5 13 18 21 20 21 19 17 16 16 16 14 14 14 13 13 12 11 9 8 7
19 7 18 19 17 13 13 3 2 4 5 7 7 8 14 12 8 5 5 9 11 13 11 5 6 7 6 4 5 6 4 4 10 13 15 20 22 22 20 19 18 17 17 16 15 14 13 13 13 12 11 9 8 8
9 12 22 20 15 10 4 4 3 5 9 10 8 10 10 8 4 5 5 9 11 13 9 4 4 5 5 6 5 5 8 8 11 14 15 19 21 20 18 20 19 18 17 16 15 14 13 13 12 9 11 10 9 8
11 14 20 21 12 5 4 6 5 6 12 9 5 12 11 3 4 5 6 10 9 5 3 3 4 5 4 5 9 10 9 11 14 15 16 19 19 20 20 19 18 17 17 16 15 10 10 11 8 9 8 8 6 6
11 20 19 21 11 4 5 6 6 7 5 5 10 12 5 4 4 5 6 10 6 4 4 3 3 3 3 5 8 9 11 14 17 17 16 14 14 19 19 17 13 16 13 14 12 11 10 9 8 8 7 7 7 6
7 12 12 10 3 4 6 6 8 6 3 7 2 5 3 3 4 7 8 8 6 5 4 2 5 4 4 3 6 9 14 15 15 14 19 18 16 15 15 13 15 12 12 11 11 10 9 8 8 7 6 6 6 6
6 14 4 4 1 5 8 6 4 5 6 2 4 4 4 4 6 7 7 7 5 6 2 4 5 4 4 6 9 13 15 17 15 13 13 16 16 16 15 14 13 12 12 11 11 11 9 8 8 8 7 5 7 7
10 6 2 7 9 7 8 6 3 5 5 3 3 5 4 4 6 7 3 5 3 3 5 6 7 7 6 8 13 16 17 17 14 14 15 13 14 13 13 13 12 13 12 11 10 9 9 10 8 8 7 6 7 5
6 5 8 9 8 7 4 4 4 4 4 4 4 5 6 4 7 5 4 7 6 7 7 10 8 7 7 10 11 13 13 13 13 14 13 15 14 13 13 12 11 11 10 11 11 10 9 10 9 9 8 6 8 6
7 11 9 8 7 7 4 3 5 4 5 7 4 3 5 5 4 4 5 5 9 8 9 8 8 8 9 9 10 10 15 13 14 16 14 13 13 13 12 11 11 11 10 11 12 10 9 9 7 10 10 9 11 10
13 9 10 9 5 4 6 7 7 9 5 2 2 5 4 3 5 5 4 9 10 10 10 10 10 10 9 10 11 12 14 12 14 12 14 13 13 14 15 14 14 12 12 11 12 13 13 11 8 13 10 11 8 8
6 6 6 7 4 4 4 3 5 4 4 6 5 5 3 5 6 3 2 8 8 10 10 9 9 9 10 10 10 10 10 13 12 11 11 11 11 11 11 13 16 12 13 14 14 13 14 13 11 11 10 8 7 9
4 8 7 6 3 5 5 3 6 6 4 4 6 4 9 9 4 2 1 3 9 11 10 9 8 8 9 10 10 10 11 12 11 12 9 8 8 9 10 9 9 10 11 12 12 11 12 12 10 10 11 10 7 9
4 5 6 3 1 3 3 3 2 1 2 5 5 3 3 4 3 1 2 1 9 11 11 10 7 9 10 9 8 9 11 12 19 23 22 13 12 10 10 9 7 10 9 12 11 11 14 12 11 10 11 10 8 7
5 5 3 4 2 4 1 2 1 3 4 4 3 3 3 3 1 2 4 4 8 9 8 9 9 11 11 12 12 10 5 8 10 13 16 15 14 9 7 8 8 8 10 10 11 9 10 9 10 8 9 7 8 7
5 4 4 3 3 2 1 2 2 1 3 3 4 4 4 2 2 1 2 3 4 5 7 7 6 5 10 13 13 13 7 2 7 11 9 7 6 7 8 8 8 9 10 12 11 11 11 10 9 10 11 12 13 11
3 3 5 5 3 2 1 2 0 2 3 4 3 3 1 2 3 4 2 2 3 5 5 8 10 9 6 6 5 3 7 6 7 8 14 9 9 9 10 9 9 10 9 10 8 10 14 14 12 12 12 14 13 14
2 2 4 5 4 5 4 3 2 3 2 2 1 1 1 2 3 3 2 2 3 5 6 5 5 4 5 8 8 4 9 8 7 9 11 11 12 11 9 8 10 11 13 11 10 11 14 12 11 12 13 12 13 13
Wind_Direction
246 244 243 238 228 206 191 187 195 208 224 218 347 350 346 347 343 355 287 285 279 298 296 357 357 1 151 163 159 156 167 206 192 243 181 171 142 140 90 86 162 117 328 73 266 131 177 155 173 64 55 40 43 354
247 244 238 232 218 197 186 184 189 202 213 203 318 339 341 344 341 352 278 258 225 252 273 318 321 337 353 342 56 167 302 158 186 248 306 88 142 174 147 151 179 168 86 155 46 58 93 65 81 65 58 55 277 309
241 238 232 225 208 190 181 181 187 196 194 182 319 324 336 340 341 358 296 307 294 264 252 225 196 74 15 348 327 183 179 81 112 340 37 30 114 235 189 116 123 132 136 158 142 114 146 121 73 139 133 173 37 37
235 232 224 216 201 184 177 179 186 186 185 191 306 321 333 332 322 335 302 298 295 285 262 122 169 193 346 316 71 39 62 68 104 251 183 216 118 311 65 120 117 189 166 174 107 142 131 121 123 54 108 55 52 63
230 226 215 204 192 178 174 179 178 178 184 205 294 319 329 328 319 302 274 262 266 281 319 112 129 125 178 189 161 120 140 151 166 166 202 82 77 154 80 109 123 186 175 191 121 131 115 126 103 76 56 52 42 42
224 214 205 194 183 172 173 175 168 172 174 223 289 314 326 327 325 350 263 199 220 249 277 205 92 140 165 169 155 163 175 221 213 145 93 84 73 272 202 146 140 161 107 98 113 114 114 108 73 86 73 61 57 52
210 199 192 184 174 169 170 168 164 175 196 246 292 317 320 311 298 235 302 332 322 320 243 176 143 158 157 147 134 139 206 198 206 114 200 112 170 227 223 98 154 140 108 109 117 129 137 100 89 84 84 79 75 72
198 190 182 174 166 167 166 161 168 185 200 207 300 308 298 287 267 266 245 240 239 251 261 257 95 152 180 169 164 175 159 182 235 88 180 159 141 252 149 132 144 144 151 133 141 100 105 102 93 84 86 82 77 76
185 179 173 162 167 166 162 162 172 183 166 185 284 281 250 202 223 238 116 141 203 294 300 242 155 161 176 194 131 209 190 194 129 197 170 166 152 197 132 146 158 145 143 118 121 116 113 87 94 91 84 85 83 72
161 158 163 165 166 162 159 162 170 152 170 238 264 242 227 209 212 195 287 196 192 225 220 263 189 133 188 162 179 161 211 151 182 134 111 230 98 104 136 149 142 140 118 119 135 116 107 104 94 90 91 81 74 70
157 162 171 175 159 155 159 161 151 159 205 218 240 240 314 282 188 201 237 171 203 219 206 236 202 140 180 181 162 173 188 187 213 141 198 190 140 152 143 143 145 117 131 140 104 103 114 110 111 105 94 87 84 79
165 165 181 173 158 157 162 159 160 200 117 67 326 289 263 215 147 216 208 212 191 208 177 200 136 161 169 191 163 219 159 192 185 154 200 208 136 148 146 148 128 108 113 120 114 119 119 120 115 107 100 96 90 81
164 164 167 161 158 163 165 162 181 20 23 30 308 255 225 145 179 206 186 191 180 186 152 158 152 130 122 266 125 197 164 178 133 169 205 186 140 144 149 135 115 115 127 114 125 120 121 120 115 110 107 101 89 76
158 159 159 159 162 164 163 159 178 135 112 250 242 249 236 181 224 208 203 169 172 130 158 142 138 160 175 167 188 172 135 147 193 194 207 146 150 146 137 127 125 136 133 131 127 130 126 121 115 111 108 105 98 83
155 155 155 159 167 162 160 163 160 123 133 251 240 243 221 231 227 207 203 169 148 151 141 144 168 132 154 159 204 132 179 213 210 203 144 144 146 142 137 135 138 139 138 135 137 138 132 129 130 120 113 109 107 104
148 140 170 165 168 159 160 143 111 130 236 241 238 258 244 214 238 201 155 148 152 145 149 171 160 166 184 186 176 206 180 209 209 162 129 141 143 141 138 143 141 141 142 142 146 139 141 136 136 127 123 119 113 111
162 160 161 161 161 153 165 117 138 206 238 238 236 256 266 279 200 161 176 160 158 161 172 172 156 189 134 189 207 183 206 104 102 121 136 142 143 143 142 141 144 147 147 149 145 146 141 141 136 137 134 129 121 110
179 142 151 152 159 151 170 179 228 228 239 243 253 261 289 281 149 183 175 169 175 177 195 157 116 192 188 193 187 164 107 109 117 132 136 140 141 141 143 143 148 150 148 149 150 146 145 150 151 143 140 142 132 125
178 147 154 160 172 144 168 192 222 247 233 254 248 278 263 305 241 197 166 182 180 217 103 169 228 207 199 233 149 125 136 132 134 132 135 139 142 143 143 146 149 148 151 153 152 149 153 162 148 143 148 159 148 149
127 141 158 167 177 189 224 211 208 259 259 253 221 234 226 229 198 174 170 175 180 190 172 207 242 29 62 76 123 139 136 138 138 138 140 145 146 147 150 152 151 150 150 148 149 155 161 160 145 152 166 164 147 139
153 137 127 146 167 257 273 212 194 207 209 267 212 197 230 190 172 165 169 190 190 206 201 199 94 79 9 73 126 135 140 149 149 151 147 147 150 151 152 151 149 155 152 157 157 161 165 152 156 147 145 142 142 125
165 159 138 124 217 237 248 241 241 175 217 207 202 222 181 170 178 165 156 186 202 220 102 135 112 137 170 172 141 138 144 142 140 132 133 142 153 156 157 155 159 159 159 163 162 159 157 153 152 140 154 121 125 120
121 141 194 179 213 233 241 175 204 211 227 212 223 169 175 161 173 145 162 199 187 98 135 120 137 164 160 145 133 143 149 149 144 148 148 153 150 155 151 156 163 160 162 159 160 160 155 142 127 153 125 146 120 118
75 221 213 176 195 234 197 177 217 237 204 187 217 174 142 129 145 193 204 190 141 149 143 146 154 140 148 149 151 157 154 146 147 147 159 151 155 156 156 161 161 163 164 154 151 167 144 145 139 139 135 111 120 141
220 209 185 196 215 199 141 159 238 200 188 215 153 132 147 146 164 188 215 154 154 160 156 160 159 164 158 156 159 158 147 159 154 159 153 161 152 147 156 165 163 167 160 160 161 143 143 136 141 127 141 151 158 175
208 191 161 199 178 140 171 190 208 210 157 151 142 119 187 157 151 207 211 158 163 162 168 171 162 162 168 169 163 154 157 153 164 160 159 166 164 162 163 165 167 172 167 166 149 147 147 147 148 149 154 181 181 158
155 146 180 231 166 205 242 209 180 135 145 160 152 155 138 146 203 218 97 157 163 159 163 165 166 165 161 158 150 152 156 158 175 153 150 162 159 167 171 171 174 170 159 157 145 155 155 161 169 163 161 176 180 174
195 166 156 186 152 237 241 192 177 169 172 160 141 167 163 173 176 121 66 157 141 146 152 157 166 159 153 149 151 151 144 157 153 137 142 148 159 165 167 163 164 144 156 138 148 148 154 160 174 163 162 172 171 181
149 164 137 142 102 259 230 216 193 67 355 148 130 148 119 54 38 60 311 311 145 150 148 154 147 138 138 138 141 145 161 166 160 163 167 167 167 174 172 162 144 154 133 138 140 147 159 163 167 163 164 165 171 165
147 146 114 100 176 235 202 311 17 329 351 31 57 102 96 94 72 285 293 283 165 159 149 148 143 145 149 151 153 158 170 168 173 174 171 175 173 151 143 131 146 128 130 134 141 113 97 110 122 130 157 161 172 179
100 78 86 123 201 262 18 32 298 267 37 44 10 56 72 96 116 350 319 10 77 97 108 112 110 130 152 162 163 158 164 255 153 162 156 142 133 130 131 140 136 134 143 150 145 152 146 157 169 169 174 180 187 189
89 157 172 155 139 164 213 261 313 72 35 39 42 53 91 122 122 152 112 67 107 123 137 145 150 162 169 137 142 102 140 139 152 155 154 151 147 141 142 138 126 135 141 139 151 157 165 166 173 183 189 194 196 201
148 169 187 139 134 192 197 197 143 112 81 97 77 155 179 132 147 145 124 79 148 151 151 138 128 149 128 144 153 130 151 152 142 136 138 143 147 147 145 138 149 155 162 163 169 169 179 189 191 192 190 190 196 203